sat.trackr.live / text

‹ back to catalog

STARLINK-4590

NORAD 53606 · 2022-104U

PAYLOAD ACTIVE UNKNOWN

§ Identity

Operator
Country
US
Launch date
2022-08-28
Launch site
AFETR
Launch vehicle
Mass (kg)
RCS (m²)

Purposes: comms

External: N2YO · Heavens-Above · Gunter

§ Orbital elements

Epoch: 2026-09-19T21:08:36.607200Z

Period
93.85 min
Inclination
53.1609°
Eccentricity
0.0000504
Mean motion
15.34397424 rev/d
Perigee alt
462.4 km
Apogee alt
463.1 km
Semi-major
6,840.8 km
B*
4.5779e-5
RAAN
70.3213°
Arg perigee
84.8368°
Mean anomaly
275.2692°
Rev number
22,511

§ Raw data

STARLINK-45901 53606U 22104U   26262.88097925  .00001171  00000+0  45779-4 0  99902 53606  53.1609  70.3213 0000504  84.8368 275.2692 15.34397424225114

JSON: /api/v1/satellites/53606 · /tle

For live sub-satellite position, see the globe view (requires WebGL).

§ Visibility from observer

Set your observer location to see the next 7 days of passes ≥ 10°. The values pass through the URL so the page stays shareable.

No JS? Fill the form by hand. The geolocation button needs JavaScript.